Regional Weather Roundup
Issued by NWS Grand Forks, ND

Home | Current Version | Previous Version | Text Only | Print | Product List | Glossary Off
Versions: 1 2 3 4 5 6 7 8 9 10 11 12 13 14 15 16 17 18 19 20 21 22 23 24 25 26 27 28 29 30 31 32 33 34 35 36 37 38 39 40 41 42 43 44 45 46 47 48 49 50

000
ASUS43 KFGF 191110
RWRFGF
PRAIRIE TO PINES  WEATHER ROUNDUP
NATIONAL WEATHER SERVICE EASTERN NORTH DAKOTA/GRAND FORKS ND
600 AM CDT THU OCT 19 2017

 **SATELLITE DATA USED TO AUGMENT SKY COVER AT AUTOMATED STATIONS**
 *****  WEATHER ACROSS EASTERN NORTH DAKOTA  *****

CITY           SKY/WX    TMP DP  RH WIND       PRES   REMARKS
GRAND FORKS    FAIR      33  27  78 S5        29.88F
GRAND FRKS AFB FAIR      34  25  70 S6        29.87F
DEVILS LAKE    FAIR      39  32  76 SE7       29.84F
FARGO          FAIR      37  28  70 SE8       29.93S
WAHPETON ARPT  NOT AVBL
$$

 ***** WEATHER ACROSS CENTRAL AND WESTERN NORTH DAKOTA  *****

CITY           SKY/WX    TMP DP  RH WIND       PRES   REMARKS
BISMARCK       FAIR      37  27  67 E3        29.82F
MINOT          FAIR      47  28  47 S9        29.73F
JAMESTOWN      FAIR      33  27  78 SE5       29.86F
MINOT AFB      FAIR      35  28  76 S7        29.72F
GARRISON         N/A     42  30  62 S6        29.78F
WILLISTON      FAIR      40  28  62 S3        29.72F
DICKINSON      FAIR      41  27  57 S5        29.77S
HETTINGER      FAIR      35  25  66 CALM      29.83F
$$

 *****  OTHER AIRPORT OBSERVATIONS IN OUR AREA  *****

CITY           SKY/WX    TMP DP  RH WIND       PRES   REMARKS
WALHALLA       FAIR     N/A N/A N/A SW6       29.84F
GRAFTON AIRPOR FAIR      32  25  74 CALM      29.89F
VALLEY CITY AR FAIR      36  28  75 CALM      29.90F
CANDO          FAIR      30  30 100 SE8       29.84F WCI  23
CAVALIER APRT  FAIR      39  25  56 CALM      29.85F
GWINNER          N/A     39  30  70 CALM      29.90F
SHEYENNE NWR     N/A     33  29  84 SE5       29.95S
ROLLA          FLURRIES  37  23  56 SW12      29.80F
 ***** THE ABOVE OBSERVATIONS ARE NON NWS ARE NOT QUALITY
       CONTROLLED AND MAY MIS-REPORT RAIN FOR SNOW...
$$

  *****  WEATHER ACROSS NORTHERN MINNESOTA  *****

CITY           SKY/WX    TMP DP  RH WIND       PRES   REMARKS
FLAG ISLAND    FAIR      43  23  45 SW9       29.84R
WARROAD        FAIR      39  25  56 SW10      29.88R
ROSEAU         FAIR      39  27  60 SW6       29.88S
HALLOCK        FAIR      30  18  59 SE7       29.87S WCI  23
THF RVR FALLS  FAIR      36  24  62 S6        29.91F
BAUDETTE       FAIR      41  21  44 W8        29.88R
WASKISH        FAIR      45  32  61 W10G16    29.90S
CROOKSTON      FAIR      34  25  69 SE8       29.91F
STEPHEN NDAWN    N/A     36  25  64 S6          N/A
GREENBUSH NDAW   N/A     34  23  64 S2          N/A
$$
  *****  WEATHER ACROSS CENTRAL AND WEST MINNESOTA  *****

CITY           SKY/WX    TMP DP  RH WIND       PRES   REMARKS
FOSSTON        FAIR      34  23  64 S5        29.93F
BEMIDJI        FAIR      34  24  67 CALM      29.93F
PARK RAPIDS    FAIR      39  27  62 CALM      29.95S
ELBOW LAKE     FAIR      40  32  74 CALM      29.98S
WADENA         FAIR      34  28  80 CALM      29.96F
DETROIT LAKES  FAIR      43  32  65 S5        29.96S
MOORHEAD       FAIR      36  28  75 SE7       29.95S
FERGUS FALLS   FAIR      39  30  70 SE7       29.98S
MORRIS MN      FAIR      36  34  93 SE7       29.97S
STAPLES        FAIR      36  28  75 CALM      29.98R
$$
  *****  WEATHER ELSEWHERE ACROSS MINNESOTA  *****

CITY           SKY/WX    TMP DP  RH WIND       PRES   REMARKS
DULUTH         FAIR      41  26  55 W12       29.93S
INTRNTL FALLS  FAIR      40  21  46 W7        29.86R
ELY            FAIR      43  19  39 W9        29.87R
CLOQUET        FAIR      43  21  42 SW7       29.96R
WHEATON        FAIR      37  32  81 SE5       29.97F
BRAINERD       FAIR      37  27  67 SW5       29.98S
HIBBING        FAIR      38  23  55 SW6       29.93R
ALEXANDRIA     FAIR      40  32  73 CALM      29.99F
SAINT CLOUD    FAIR      38  33  82 SE3       30.02R
MINNEAPOLIS    FAIR      46  33  60 CALM      30.05R
$$

  *****  WEATHER ACROSS SOUTH DAKOTA  *****

CITY           SKY/WX    TMP DP  RH WIND       PRES   REMARKS
SIOUX FALLS    FAIR      37  34  89 NE6       30.04S
BROOKINGS      FAIR      39  31  72 SE3       30.03R
WATERTOWN      FAIR      40  32  73 S9        29.98S
HURON          FAIR      40  31  70 SE8       29.97F
SISSETON         N/A     40  32  73 E6        29.93S
ABERDEEN       FAIR      39  31  72 S9        29.93S
MITCHELL       FAIR      48  30  49 S9        30.00F
PIERRE         FAIR      46  35  65 SE13      29.89F
MOBRIDGE       FAIR      49  36  61 S13       29.83F
RAPID CITY     FAIR      47  26  44 VRB3      29.87F
$$

  *****  SOME WEATHER IN NEARBY STATES *****

CITY           SKY/WX    TMP DP  RH WIND       PRES   REMARKS
GLASGOW MT     FAIR      45  36  70 SE9       29.66F
GREAT FALLS MT FAIR      61  20  20 SW22G30   29.66F
CHEYENNE WY    FAIR      42  19  39 W14       30.10F
SCOTTSBLUFF NE FAIR      40  31  70 E7        30.02S
OMAHA NE       FAIR      44  40  85 NW5       30.06R
DES MOINES IA  FAIR      53  40  61 E6        30.09R
DAVENPORT IA   FAIR      45  43  93 NW5       30.12R
CHICAGO IL     FAIR      53  46  77 W6        30.08R
EAU CLAIRE WI  FAIR      39  30  70 CALM      30.04R
LA CROSSE WI   FAIR      46  37  71 S7        30.07R
$$

  *****  SOME NATIONAL WEATHER *****

CITY           SKY/WX    TMP DP  RH WIND       PRES   REMARKS
LA GUARDIA NY  FAIR      59  46  62 SW7       30.24F
RALEIGH NC     FAIR      42  42 100 CALM      30.30S
ATLANTA GA     FAIR      51  42  71 NE7       30.28R
NEW ORLEANS LA FAIR      66  62  87 NE5       30.15R
OKLAHOMA CITY  MOCLDY    54  45  71 S9        30.09R
ALBUQUERQUE NM CLOUDY    52  26  36 N8        30.13S
SALT LAKE CITY FAIR      45  30  55 SE7       30.00F
LOS ANGELES CA FAIR      65  59  81 NE3       29.89F
BOISE ID       FAIR      51  28  41 SE12      29.82F
SEATTLE WA     RAIN      52  50  93 S14       29.62F FOG
$$

*** WEATHER ACROSS MANITOBA...SASKATCHEWAN AND ONTARIO ***
                ***ONTARIO***

CITY           SKY/WX    TMP DP  RH WIND       PRES   REMARKS
GERALDTON      CLOUDY    48  27  43 W9G20     29.57R
THUNDER BAY    CLEAR     46  19  34 SW10      29.76R
SIOUX LOOKOUT  CLEAR     45  27  49 W10G25    29.71R
TORONTO        PTCLDY    55  48  76 S13       30.00F
BIG TROUT LK   CLOUDY    36  36 100 W20G31    29.36R
PICKLE LAKE    NOT AVBL
DRYDEN         CLEAR     43  21  42 W12G21    29.75R
KENORA         CLEAR     43  18  36 W12       29.80R
$$
                *** MANITOBA***

CITY           SKY/WX    TMP DP  RH WIND       PRES   REMARKS
BRANDON        CLEAR     28  19  69 NE5       29.78F WCI  23
DAUPHIN        CLEAR     34  18  51 CALM      29.75F
ISLAND LAKE    LGT RAIN  34  32  93 NW13G24   29.61R WCI  25
PILOT MOUND      N/A     28  21  74 SE6         N/A  WCI  22
THE PAS        CLOUDY    27  23  86 E2        29.69S
THOMPSON       MOCLDY    30  28  93 NW5       29.65R
WINNIPEG       CLEAR     39  19  45 SW9       29.83S
LYNN LAKE      CLOUDY    28  27  93 E6        29.68F WCI  22
CHURCHILL      FLURRIES  36  32  87 NE28G36   29.62R
GILLAM         DRIZZLE   34  32  93 N16G22    29.55R WCI  23
$$
                ***SASKATCHEWAN***

CITY           SKY/WX    TMP DP  RH WIND       PRES   REMARKS
ESTEVAN        PTCLDY    37  27  65 SE5       29.68F
KINDERSLEY     CLOUDY    55  39  54 SW22G30   29.38F
LLOYDMINSTER   CLEAR     34  23  64 SE9       29.33F
PRINCE ALBERT  CLOUDY    34  23  64 E15       29.53F WCI  24
REGINA         PTCLDY    36  21  55 SE13      29.59F
YORKTON        MOCLDY    36  19  51 SE7       29.65F
N. BATTLEFORD  CLEAR     37  21  52 E13G18    29.40F
LA RONGE       MOCLDY    32  27  80 E14G21    29.59F WCI  22
SASKATOON      CLOUDY    41  25  52 SE12      29.46F
SWIFT CURRENT  CLOUDY    55  36  47 SW17G24   29.52S
$$
NOTE: THESE ARE AUTOMATED STATIONS WITH LIMITED QUALITY CONTROL
      "FAIR" INDICATES FEW OR NO CLOUDS BELOW 12,000 FEET WITH NO
      SIGNIFICANT WEATHER AND/OR OBSTRUCTIONS TO VISIBILITY.
      SKY/WX - SKY CONDITION AND SIGNIFICANT WEATHER.
      TMP - AIR TEMPERATURE.    DP   - DEWPOINT TEMPERATURE.
      RH  - RELATIVE HUMIDITY.  PRES - PRESSURE.
      HX  - HEAT INDEX.         WCI  - WIND CHILL INDEX.
$




USA.gov is the U.S. government's official web portal to all federal, state and local government web resources and services.